Theta_e
330 329 331 332 331 331 332 333 333 333 334 335 336 337 337 336 337 338 341 343 344 343 344 348 351 351 351 351 352 352 352 352 352 351 351 350 350 349 348 346 345 345 345 344 344 345 347 350 352 353 354 353 352 352 351 351 351 353 353 352 353 353 352
328 328 329 331 330 331 332 332 333 334 334 335 336 336 336 337 337 339 340 343 344 344 345 346 351 351 352 352 353 352 351 351 353 356 352 352 353 352 350 348 346 345 345 345 345 345 348 349 351 351 352 353 353 352 351 351 351 350 350 350 349 347 348
327 326 328 330 330 330 331 332 333 334 334 334 336 335 335 337 337 339 340 341 342 343 345 345 349 350 351 351 351 351 351 351 352 352 351 350 350 351 351 350 347 346 346 346 345 346 349 349 349 350 349 349 350 350 348 347 348 348 346 343 341 340 337
326 325 327 330 330 331 332 332 333 333 334 334 335 335 336 337 337 338 341 340 341 345 345 344 346 348 348 349 350 350 351 350 351 352 352 350 349 350 350 350 350 348 346 345 347 348 348 348 348 348 353 347 344 343 342 341 341 340 338 336 336 337 337
325 325 325 327 329 329 331 331 333 333 333 333 334 337 337 338 337 337 340 342 341 344 346 344 346 348 348 349 350 350 351 351 350 350 350 350 351 349 348 349 350 349 348 347 347 348 347 345 342 342 342 343 340 336 335 334 334 335 336 336 336 338 337
324 323 323 325 328 329 331 332 333 333 332 332 332 335 336 337 336 337 339 343 342 344 346 345 345 349 347 347 348 348 349 349 349 349 348 347 348 349 349 349 350 350 349 348 349 346 344 342 339 336 336 337 337 335 334 335 336 336 336 336 337 337 339
324 324 323 325 328 329 330 331 333 334 333 333 333 335 336 336 335 337 339 342 344 342 343 345 345 347 348 348 347 348 347 347 347 347 347 346 346 347 349 351 353 352 352 351 348 347 343 337 335 334 334 334 337 335 334 334 334 334 336 336 336 337 339
324 323 323 326 327 329 330 331 332 334 333 332 332 332 333 334 335 334 336 342 343 342 343 345 346 346 348 349 348 347 347 347 347 347 346 346 345 345 347 348 351 351 352 350 347 345 340 336 335 337 336 335 334 335 334 334 334 333 334 334 333 335 342
324 324 325 326 327 328 329 330 331 333 332 331 332 331 332 333 334 335 334 340 342 342 342 345 347 348 347 348 348 348 348 348 349 351 349 348 348 347 346 345 344 345 344 340 337 339 338 336 336 338 337 336 337 335 335 335 335 336 338 339 338 337 337
324 325 325 327 327 328 328 329 330 331 331 331 331 331 331 333 334 334 335 337 342 342 343 346 348 349 348 347 347 348 348 350 354 353 349 344 341 340 340 343 344 345 342 339 339 342 341 342 338 337 338 337 338 338 338 338 338 337 337 337 336 336 335
328 330 330 329 328 329 329 330 331 332 332 331 331 332 333 335 335 336 338 338 344 346 345 346 349 350 349 347 346 347 349 352 352 349 346 341 343 344 342 344 344 345 344 344 343 343 344 345 345 342 340 341 340 340 339 338 338 337 337 337 337 336 335
330 329 329 328 329 329 330 331 331 331 333 333 334 339 342 343 344 345 346 348 351 352 352 350 349 350 350 350 352 351 348 347 346 347 345 344 343 342 343 343 344 344 344 345 343 343 343 344 344 346 343 342 342 341 340 340 339 339 338 338 338 338 338
332 332 332 330 331 332 334 333 332 332 336 340 342 343 343 342 343 346 347 348 348 349 353 354 355 354 352 349 347 346 346 345 344 345 346 345 344 344 344 344 344 344 344 346 346 346 346 346 346 347 347 346 345 344 343 342 341 340 340 340 340 340 340
342 334 334 334 333 333 337 340 340 340 339 339 340 342 343 343 344 346 347 347 348 349 350 350 347 347 345 345 344 343 344 342 345 346 347 348 347 347 346 344 344 343 343 346 346 347 348 348 349 348 349 348 347 347 346 345 343 342 342 341 341 341 341
334 334 335 335 335 336 339 340 338 337 337 338 340 340 341 342 344 344 344 346 346 346 346 348 346 345 344 344 344 343 345 344 345 346 347 351 351 351 350 350 350 351 351 350 350 351 348 349 348 349 349 349 348 347 347 346 345 345 344 342 342 342 341
334 334 334 334 336 339 341 342 338 337 338 339 340 339 340 340 342 343 343 342 342 340 340 342 342 342 342 342 343 344 344 345 348 351 350 348 347 346 347 348 348 349 349 349 349 348 349 348 347 346 346 346 346 345 346 345 345 350 350 350 346 343 343
333 334 335 336 338 340 343 343 341 341 341 340 339 338 340 341 341 340 340 340 340 340 340 340 340 340 339 338 339 341 347 348 351 349 347 347 347 347 347 347 347 344 343 343 342 343 343 345 342 342 343 343 343 343 344 345 346 349 343 343 345 349 345
332 333 334 335 336 338 339 340 340 340 339 339 339 339 339 339 339 340 340 341 341 341 342 341 339 338 338 339 340 342 344 345 345 343 343 342 343 343 343 343 341 341 340 341 341 342 343 341 341 341 341 342 341 341 342 343 347 340 340 342 342 347 345
335 336 335 336 338 338 337 337 336 336 337 338 340 340 340 340 338 338 339 340 340 340 338 338 338 337 338 340 340 342 343 342 342 342 342 341 342 342 341 340 339 338 338 338 340 340 338 338 338 338 338 339 338 338 339 339 342 337 337 337 337 338 345
337 338 338 338 337 337 336 337 338 338 338 339 341 343 343 342 339 338 340 340 339 338 337 336 338 338 339 341 342 342 341 340 339 338 338 338 338 338 337 336 335 335 336 338 337 336 336 336 336 336 336 336 336 337 338 337 342 336 335 335 335 336 339
338 339 338 336 336 337 337 337 335 335 336 337 340 341 343 342 340 338 338 338 338 339 340 340 339 340 339 339 339 338 337 336 336 336 336 335 335 334 333 333 333 334 335 336 335 334 334 334 334 335 337 337 336 336 336 337 338 334 334 332 331 332 338
339 339 338 338 338 337 337 336 335 334 335 339 339 340 343 344 343 341 341 343 342 340 339 338 338 339 340 337 337 335 335 334 333 332 331 332 331 331 331 332 332 332 333 336 333 334 334 333 334 334 334 335 334 334 333 335 332 330 330 328 328 331 336
344 344 343 342 341 340 340 339 339 340 341 340 339 339 338 339 339 340 340 339 338 337 336 336 336 336 336 335 334 334 332 332 331 330 330 329 329 328 329 330 330 331 333 332 332 332 331 332 333 334 333 333 334 333 333 333 332 329 326 326 326 330 332
345 344 344 343 343 343 342 342 342 343 341 340 339 339 339 338 338 337 337 336 334 333 333 333 332 332 332 331 333 331 330 331 330 329 330 329 329 329 329 330 330 330 333 331 330 330 331 331 331 332 333 333 332 333 332 332 334 328 324 323 324 331 331
342 342 341 341 341 340 340 341 341 341 340 339 336 336 337 337 337 336 335 334 331 331 332 331 330 330 330 330 331 330 330 329 330 329 328 327 328 329 329 329 329 332 332 330 329 329 329 331 330 330 330 331 331 337 335 333 333 326 324 323 322 329 331
338 338 338 339 341 341 341 342 339 336 335 334 334 336 336 336 337 339 334 331 331 331 331 330 331 330 329 329 329 328 330 328 330 329 328 326 327 327 327 329 330 328 327 327 327 327 327 328 329 327 328 329 330 331 332 331 331 332 325 322 321 322 330
334 336 338 340 341 346 337 337 336 334 334 334 334 335 335 334 333 333 334 330 328 327 328 329 328 328 327 327 326 327 327 326 327 326 325 326 325 327 329 328 325 326 326 326 326 326 326 326 327 328 328 329 330 330 330 332 333 332 324 321 320 322 327
337 337 339 342 343 339 335 335 334 334 334 334 335 334 333 332 334 332 328 325 323 324 325 325 326 326 325 324 325 326 325 324 325 326 327 326 327 324 324 325 325 326 326 326 325 325 325 326 328 328 328 328 329 330 330 333 334 331 327 323 320 318 319
333 334 334 335 336 339 336 333 333 333 333 334 333 333 332 331 331 330 326 322 322 325 326 326 325 324 323 324 324 324 324 324 324 325 326 326 326 324 323 324 325 325 326 325 325 325 325 326 327 328 328 328 329 330 330 329 328 328 327 325 319 315 316
333 334 334 336 337 336 338 332 332 331 331 331 331 329 328 327 328 327 323 321 323 325 326 324 324 323 323 324 322 323 323 324 325 324 324 324 325 325 325 325 325 325 326 325 325 325 326 326 327 325 322 322 322 322 323 322 322 323 324 322 319 316 313
332 332 333 333 334 336 333 330 329 328 328 328 328 327 325 324 325 323 321 321 324 324 323 324 324 323 322 320 321 322 322 322 322 323 323 324 324 324 325 324 325 324 325 325 325 326 325 323 322 320 319 318 317 316 317 318 318 317 320 320 321 317 315
332 332 332 332 331 332 330 329 328 326 325 325 326 325 325 322 322 322 320 323 324 322 323 323 322 322 321 319 320 321 321 321 322 322 324 324 324 324 324 324 324 325 324 324 323 322 321 320 318 317 316 315 314 314 314 316 315 315 315 318 319 318 316
331 332 331 331 333 333 328 328 327 326 326 323 323 322 322 322 323 322 322 322 323 323 322 322 322 322 320 319 319 320 320 320 321 322 322 322 322 323 324 324 323 320 321 320 319 318 318 316 315 314 314 313 312 313 314 314 314 314 314 314 312 312 313
330 330 331 331 330 329 326 324 324 325 324 321 320 321 323 322 322 322 322 323 323 321 321 322 321 319 317 318 319 320 321 321 326 324 320 321 322 320 319 320 319 318 317 317 317 316 314 313 313 313 312 312 312 312 312 312 312 312 311 310 309 309 308
330 329 329 328 328 328 324 325 324 322 320 320 320 321 321 321 321 322 321 322 322 319 320 320 320 320 317 317 318 318 322 323 322 321 320 321 321 317 317 318 318 317 316 318 317 316 314 312 312 314 312 312 312 311 310 310 310 310 309 306 305 305 304
330 329 328 328 327 326 327 327 322 320 320 319 320 321 321 320 320 320 322 322 321 319 319 319 319 317 316 317 317 319 321 322 320 319 321 321 321 316 315 316 310 312 316 315 315 310 307 308 311 312 313 312 312 313 311 308 308 305 301 300 300 301 301
328 327 326 326 323 321 322 324 324 321 321 320 321 321 320 319 319 318 320 320 320 319 317 316 318 317 317 319 318 320 322 321 319 321 321 322 321 316 315 314 315 304 305 312 315 309 302 301 302 306 311 313 310 312 311 308 304 301 301 301 300 300 300
328 326 326 324 323 324 323 321 321 320 320 319 320 319 318 319 318 318 319 319 319 317 316 315 316 315 315 316 318 321 322 319 321 323 323 323 319 317 317 316 315 316 308 305 307 308 303 301 300 300 303 305 306 309 309 307 303 301 301 301 301 300 300
Wind_Speed
15 13 14 14 13 13 13 13 14 14 14 13 13 12 12 8 8 9 9 9 10 9 9 10 11 10 11 10 9 8 8 7 6 7 7 7 7 7 6 5 6 6 6 6 7 7 7 5 5 6 6 7 8 8 7 6 6 7 6 6 6 6 7
13 13 13 13 13 13 13 13 13 13 13 13 13 12 10 9 8 9 10 11 12 13 13 12 11 10 11 10 9 8 8 8 8 6 6 6 6 6 6 6 7 7 6 7 7 7 6 6 5 6 7 7 7 7 7 7 7 7 6 6 6 6 5
13 12 12 13 14 14 14 12 13 13 13 12 12 11 12 11 11 12 11 10 9 8 9 10 11 11 10 9 7 9 9 8 7 8 8 8 8 8 6 6 6 7 7 7 5 7 5 7 6 6 6 6 8 8 7 6 6 7 6 6 5 6 5
13 13 13 15 15 14 15 14 15 14 13 13 14 13 13 12 11 11 11 10 10 8 9 8 9 9 9 9 9 9 9 8 9 9 9 8 7 7 6 6 6 5 5 7 8 7 7 6 6 6 7 7 8 7 6 7 7 6 6 6 6 6 5
13 11 10 12 13 13 13 13 14 14 14 13 12 13 13 12 10 9 8 10 11 12 12 12 10 10 9 9 8 8 9 10 8 7 7 6 6 6 6 8 7 7 8 7 7 7 7 7 7 7 7 7 7 6 7 6 5 5 5 5 5 4 6
13 13 11 11 13 13 14 15 15 16 14 13 12 11 11 11 9 11 10 9 9 10 10 10 10 10 10 10 9 8 7 8 7 7 6 6 6 7 8 9 9 8 8 9 8 7 8 7 6 6 6 6 7 7 6 5 5 6 6 5 5 6 6
14 13 11 11 12 13 15 15 15 14 13 13 10 8 8 9 11 11 9 9 9 10 9 10 10 9 10 8 9 8 9 8 7 8 6 5 5 6 8 8 8 8 9 8 9 8 8 7 7 7 8 8 7 7 6 5 6 6 4 5 5 5 5
12 10 10 11 11 12 13 13 13 10 9 6 7 7 9 9 8 8 9 9 9 8 9 10 9 9 9 8 9 10 9 8 7 7 5 4 5 5 6 5 4 3 6 8 8 7 8 7 6 5 5 5 5 5 5 5 5 4 4 5 5 6 5
11 12 12 11 10 10 11 12 12 11 11 11 12 11 11 9 9 9 8 7 7 8 8 9 10 10 9 9 9 10 8 6 5 4 4 4 1 1 3 3 4 4 2 5 12 11 8 7 5 5 4 4 4 4 4 4 5 5 4 4 4 5 4
6 5 5 5 6 6 7 7 6 6 7 9 9 9 10 9 9 8 7 7 6 7 9 8 8 9 9 9 9 8 5 3 1 1 2 6 7 8 9 8 9 7 5 8 11 8 3 6 6 4 4 4 4 4 4 4 4 4 4 4 5 6 7
5 4 5 5 5 4 4 5 9 10 10 10 11 10 6 2 3 6 7 7 5 4 5 8 8 8 9 9 7 3 4 7 8 8 7 5 5 2 8 5 9 6 10 8 6 6 5 6 4 4 4 5 5 5 4 5 4 5 5 6 6 7 8
8 8 7 8 7 8 10 10 7 5 3 1 4 7 10 12 13 12 11 10 9 8 8 8 5 2 1 3 6 7 8 8 8 6 4 6 7 8 7 8 9 9 8 7 8 7 7 6 6 5 6 5 6 6 6 6 5 6 7 7 6 7 7
6 5 5 6 6 5 4 3 3 4 7 6 6 6 7 9 9 9 8 8 7 4 3 5 6 4 2 4 6 8 8 7 8 8 7 4 5 6 6 7 9 7 7 6 5 5 5 4 5 5 5 6 5 6 6 6 5 6 6 7 7 7 6
9 7 6 6 6 7 7 8 9 10 7 7 6 7 6 6 8 9 8 8 5 6 6 5 4 6 8 7 8 10 10 6 4 1 2 4 3 3 3 4 5 5 5 4 5 6 5 6 6 7 5 6 5 6 5 5 6 6 7 7 7 6 6
10 8 6 7 6 6 7 7 7 8 8 7 7 7 6 7 6 7 8 8 6 7 8 9 11 14 14 12 10 7 7 9 8 7 4 4 2 1 3 4 4 3 3 3 4 4 6 5 5 6 6 5 5 6 5 6 6 6 7 6 6 6 7
11 9 9 8 7 8 8 9 9 9 8 7 8 7 5 5 6 6 8 7 7 8 7 7 8 9 7 1 6 6 9 9 8 6 3 1 1 3 3 4 4 3 4 4 4 4 4 4 4 4 5 5 6 5 5 5 4 6 11 12 10 8 7
10 9 8 7 8 8 8 8 9 8 9 7 6 7 7 6 5 6 8 7 6 6 5 6 6 6 4 4 5 6 6 5 4 2 2 2 2 3 3 3 3 3 3 3 3 3 3 3 3 3 3 4 4 5 5 5 5 11 13 14 15 11 8
9 9 8 8 7 8 9 9 9 9 9 7 6 5 6 6 5 6 6 5 5 5 4 5 5 3 4 3 3 6 6 3 2 3 3 3 4 3 3 3 4 4 3 3 4 4 4 4 4 4 4 4 4 5 5 6 8 12 13 14 15 13 10
8 8 9 8 8 8 7 8 7 8 7 5 4 5 5 6 7 7 6 5 3 4 3 3 5 5 4 5 8 6 3 2 3 3 4 3 4 4 5 5 5 5 4 5 4 3 4 4 4 4 4 5 5 6 6 6 9 12 14 14 14 15 13
8 8 7 7 7 9 8 6 6 6 6 5 3 3 3 2 5 5 5 5 3 3 3 3 2 2 1 2 1 1 3 4 4 4 5 6 6 6 5 5 4 4 4 3 4 4 4 5 5 5 5 5 6 6 6 7 9 13 14 14 15 15 13
9 9 9 9 8 8 7 9 8 8 7 7 6 5 4 3 3 3 2 4 4 2 4 5 2 1 1 2 4 5 6 7 7 6 5 4 4 4 4 4 4 4 4 4 4 5 5 6 6 5 5 5 5 6 7 7 12 14 15 15 15 15 12
10 10 10 9 11 9 10 9 10 10 8 4 5 4 4 4 4 3 4 7 8 6 5 4 5 6 6 6 6 6 4 4 4 3 3 3 3 3 4 4 4 5 5 5 5 5 5 5 5 6 6 6 7 8 8 8 13 14 15 15 15 15 9
12 11 10 9 10 10 8 9 9 8 7 6 5 6 5 5 8 9 8 7 6 7 6 6 6 6 5 4 3 3 2 1 1 2 3 3 3 4 4 5 6 6 5 5 6 6 6 6 6 6 7 8 8 8 8 8 11 14 15 15 16 12 8
12 12 12 11 9 9 9 9 10 9 9 9 8 6 7 7 8 8 7 5 5 6 5 5 3 2 3 2 0 1 1 2 2 4 4 5 5 5 5 5 4 4 4 5 5 6 6 6 7 7 7 8 8 8 9 9 10 14 14 14 15 12 9
12 11 11 12 12 12 11 10 10 9 9 9 9 6 7 7 8 7 5 4 4 4 4 4 3 3 2 1 1 2 2 3 3 3 3 3 4 4 4 5 5 5 4 5 5 6 6 6 7 7 7 7 8 12 12 9 10 13 14 14 13 10 6
11 11 9 10 10 11 11 10 11 11 10 9 6 5 6 6 7 5 5 5 5 6 4 3 1 1 1 2 3 3 3 3 2 2 3 3 4 4 5 5 5 5 6 6 6 6 6 6 7 8 8 8 8 8 8 8 8 9 12 13 10 8 4
9 10 12 12 12 11 10 10 11 10 9 7 7 7 7 7 7 6 4 5 6 3 0 1 2 3 3 3 3 3 2 2 1 2 3 3 4 4 4 5 6 6 5 6 6 6 7 7 7 7 8 7 7 7 7 6 6 7 11 9 7 8 5
12 11 10 11 13 12 11 10 10 9 8 6 7 7 6 6 5 4 5 5 4 3 3 3 4 4 3 3 2 2 2 2 3 3 3 4 4 4 5 5 5 5 5 6 6 6 7 7 7 7 7 6 6 6 6 6 10 7 9 11 12 12 10
14 13 12 12 11 9 11 9 9 8 7 6 6 6 6 7 6 4 4 6 4 2 3 3 3 3 3 2 3 3 3 3 3 3 3 4 4 4 5 6 5 5 5 5 5 6 7 7 7 7 6 5 5 4 5 6 7 12 11 12 12 7 6
11 11 10 9 10 10 11 10 8 8 6 7 7 6 5 6 5 5 7 4 1 3 3 3 3 2 3 3 3 3 3 3 4 4 4 5 5 5 5 6 6 5 5 5 5 6 7 5 5 5 6 7 7 7 7 8 8 11 16 13 15 13 13
11 11 10 10 9 9 9 10 9 8 7 5 5 4 5 5 7 7 6 1 2 3 3 3 3 3 3 3 3 3 3 4 4 4 4 4 4 5 6 6 5 6 5 4 4 4 4 5 6 6 7 7 7 8 7 7 8 8 12 18 17 16 14
10 9 10 10 10 9 9 9 8 8 7 5 5 7 6 6 7 7 3 1 2 2 2 2 2 1 2 3 3 3 4 4 5 4 4 5 5 5 5 5 6 5 5 5 5 5 5 6 6 6 7 7 7 7 8 8 7 8 8 11 14 14 15
9 9 10 10 8 8 8 7 7 6 6 6 5 6 7 7 6 4 3 3 2 2 1 1 1 1 2 3 4 4 4 4 4 5 5 5 5 4 5 5 5 6 5 5 6 6 6 6 7 7 7 7 7 7 8 8 8 8 8 8 8 8 10
10 9 8 9 8 8 7 7 6 5 6 6 5 6 6 5 4 3 3 2 2 2 2 2 2 3 3 3 4 4 4 3 8 8 5 5 5 5 5 5 6 6 7 6 6 6 6 6 6 6 7 7 8 8 7 8 8 8 8 9 8 9 8
9 10 9 9 7 7 7 5 7 7 6 5 5 5 5 4 3 3 3 3 2 2 2 2 3 3 3 3 3 4 4 4 3 5 5 4 6 6 6 5 5 6 6 5 4 4 4 3 5 5 6 6 6 8 8 8 9 9 12 11 12 10 8
9 10 8 7 6 6 5 6 7 6 6 5 5 5 4 3 3 2 2 2 2 3 3 3 3 2 3 3 4 4 4 4 4 4 4 3 6 6 7 10 9 5 4 4 5 6 5 3 2 3 5 5 6 6 7 8 8 12 13 13 14 14 13
11 9 8 7 7 5 6 7 7 7 6 5 5 4 4 3 3 2 3 3 3 3 2 2 2 3 4 4 4 5 5 4 4 4 3 3 7 6 7 5 5 6 6 6 6 6 7 6 7 7 7 6 5 8 12 13 14 16 17 18 18 17 16
8 8 7 6 6 6 8 8 6 6 5 4 5 4 3 3 2 3 3 3 3 3 2 2 3 3 4 4 4 4 4 3 4 4 5 5 8 6 5 5 5 4 4 5 6 7 8 9 10 10 10 10 8 7 8 13 16 18 19 19 18 17 16
Wind_Direction
185 187 191 192 191 193 189 188 192 195 196 199 203 201 196 185 185 184 187 187 189 183 177 177 183 181 186 192 197 195 197 188 184 193 202 210 216 216 208 208 210 219 221 222 234 231 239 234 214 213 210 207 209 213 217 217 220 224 224 224 226 231 237
189 188 189 190 190 194 193 188 192 194 196 197 199 195 190 179 178 182 187 189 189 183 181 182 181 184 188 193 192 192 192 193 189 196 202 218 224 225 217 215 212 222 220 224 230 237 241 243 221 219 217 216 218 217 214 212 213 217 220 222 217 227 228
191 189 189 189 191 192 192 191 192 196 197 195 194 188 188 183 181 180 181 185 189 189 180 182 183 185 188 187 184 196 198 190 190 194 200 212 219 223 218 217 220 221 226 232 239 249 241 247 238 234 227 226 230 226 221 218 215 215 215 211 211 219 225
191 191 190 192 192 189 190 191 190 197 197 193 191 187 186 184 183 182 178 176 177 178 184 190 187 186 186 185 192 195 199 199 196 197 206 208 218 222 223 224 224 225 228 225 230 232 243 238 241 235 230 230 232 229 219 218 220 214 217 212 214 218 224
193 194 189 191 191 188 192 192 192 195 198 194 191 185 186 182 176 176 183 180 174 181 186 186 189 192 191 187 189 193 199 199 202 206 209 211 213 219 226 233 229 227 233 237 233 232 240 246 249 245 240 230 230 225 222 219 222 221 227 218 224 230 231
191 195 192 186 189 191 191 193 194 194 194 192 189 187 187 180 171 176 185 183 184 181 180 181 186 188 190 195 193 197 198 204 200 202 209 215 212 216 226 231 231 232 236 237 237 236 239 242 241 241 239 229 224 224 221 219 223 222 226 219 218 225 223
190 194 190 184 187 191 192 194 195 196 194 194 189 184 181 178 179 179 177 186 186 179 179 180 189 188 194 189 198 197 199 204 200 207 210 219 221 228 234 235 232 230 234 237 235 235 242 242 239 235 229 223 218 216 218 218 226 223 220 216 223 228 225
183 187 193 184 186 185 190 192 194 192 195 187 178 178 183 188 178 174 180 189 186 183 180 184 190 195 197 195 197 201 202 204 201 200 199 210 226 234 251 277 291 290 269 253 253 248 242 245 241 228 211 204 211 213 214 218 225 235 220 227 238 239 214
189 187 184 186 182 182 183 186 185 182 183 183 186 185 184 181 185 187 187 183 184 178 193 192 194 196 197 198 199 206 209 200 196 173 173 200 221 357 307 301 279 244 194 11 298 285 253 234 230 222 214 219 223 222 229 227 230 230 219 223 221 228 238
173 182 196 181 181 179 187 179 169 157 178 184 189 184 185 186 185 187 181 184 177 191 200 200 200 199 200 203 205 204 191 181 148 189 101 68 34 351 331 353 305 348 341 197 222 247 305 296 258 245 232 231 238 231 235 239 237 233 218 223 229 236 240
113 117 137 169 155 137 143 155 174 183 185 189 192 191 184 152 47 27 23 21 358 298 242 213 200 198 204 202 198 162 92 55 32 30 46 91 125 176 259 266 273 233 244 262 269 275 254 255 270 258 245 238 238 239 233 233 231 241 249 245 236 233 235
140 144 166 165 152 142 162 178 183 185 186 31 33 52 67 81 88 84 77 66 57 29 352 327 314 290 76 71 83 93 107 122 135 145 175 184 182 191 201 230 245 250 260 260 268 272 266 256 253 237 239 237 243 243 246 248 251 250 250 249 247 245 245
128 131 136 143 149 145 120 103 102 85 66 95 100 90 90 99 101 107 109 101 99 94 70 23 10 9 56 98 127 138 148 160 189 195 188 207 210 201 199 210 225 237 253 253 257 258 270 271 270 268 264 266 271 274 275 271 259 253 253 254 252 248 242
106 91 82 83 76 78 83 85 89 95 96 84 86 92 98 105 121 127 128 122 114 107 83 53 45 47 29 7 357 354 18 345 319 333 257 237 233 241 246 249 256 255 259 263 267 270 269 279 285 288 285 280 273 269 264 261 263 262 262 260 253 245 242
117 112 104 96 98 98 95 88 94 99 103 106 98 94 108 117 113 88 78 79 70 60 55 63 58 48 36 21 4 355 329 300 299 274 253 239 235 276 259 266 278 283 281 287 281 269 266 268 269 273 285 284 277 275 273 269 263 255 252 252 251 237 243
123 129 125 121 113 110 114 117 116 120 118 105 103 112 103 74 78 84 88 79 72 72 68 76 82 92 90 211 242 238 248 244 248 260 253 251 238 258 249 241 241 260 281 287 288 294 304 311 310 306 292 295 295 291 282 273 271 264 267 258 256 256 250
125 127 123 114 110 108 110 110 111 109 105 109 111 112 108 108 96 89 82 84 92 98 119 117 122 126 144 221 220 242 252 260 258 262 316 314 282 271 292 318 339 344 329 317 302 285 276 266 268 264 259 261 270 281 281 276 272 270 266 266 266 265 263
125 130 130 127 123 119 113 110 114 111 114 117 120 117 111 108 106 89 91 100 99 108 112 100 96 112 189 212 291 279 269 278 311 342 326 342 348 356 0 10 10 357 342 331 331 322 324 326 316 315 312 304 296 287 278 273 272 272 273 271 270 268 265
128 133 136 128 117 107 106 112 115 112 104 107 125 133 137 130 120 127 138 133 147 131 121 135 154 171 185 205 216 240 271 304 354 12 20 15 12 11 10 6 352 341 335 323 308 319 326 308 312 305 300 292 287 282 278 279 276 275 275 273 271 270 267
129 129 118 109 113 117 119 114 103 95 99 98 93 97 118 107 120 141 146 134 132 149 169 156 100 76 337 293 284 349 36 44 40 29 16 11 8 5 359 349 337 320 313 314 324 322 312 306 298 293 287 281 278 278 280 279 281 278 277 276 274 271 270
132 134 129 127 125 125 124 121 113 110 99 100 109 118 128 123 95 92 97 172 171 138 73 56 70 162 185 77 56 48 35 30 27 22 12 8 2 355 346 335 323 327 320 318 311 307 299 298 296 290 286 285 282 280 278 273 274 273 274 275 275 275 273
141 136 136 143 135 136 137 135 129 124 123 123 92 85 88 116 164 141 86 51 52 51 56 57 46 37 44 45 34 35 30 33 27 9 354 341 340 340 331 331 326 320 314 310 310 303 301 298 291 283 279 274 273 274 273 271 271 272 274 274 274 274 273
138 135 132 135 133 138 139 131 125 130 127 125 121 107 95 76 63 62 58 54 43 49 44 52 51 42 43 49 37 37 21 26 14 344 332 325 336 331 326 325 321 318 315 311 301 298 293 283 275 273 273 275 275 275 274 275 274 274 273 273 275 279 275
115 118 120 119 118 119 118 111 103 98 96 88 68 62 67 70 74 70 65 58 46 50 47 66 71 73 77 70 79 354 348 339 342 341 340 346 338 322 310 302 295 289 285 281 284 281 278 277 277 275 273 274 274 270 275 276 273 273 275 277 278 278 280
112 115 119 124 126 120 112 111 109 105 91 85 83 77 81 83 82 76 71 64 60 67 65 58 57 47 45 353 298 309 314 332 341 337 329 317 299 291 286 279 273 271 274 272 274 276 277 280 280 280 276 271 269 273 274 278 278 278 279 281 280 285 288
118 117 116 113 109 113 113 109 99 89 88 89 96 96 89 87 82 81 74 54 50 51 42 28 359 287 242 252 290 327 354 3 2 338 311 293 285 286 278 272 278 278 279 280 274 279 279 281 282 280 279 277 276 275 274 276 279 282 284 286 295 296 277
111 117 119 117 115 107 98 95 96 100 101 102 92 81 77 74 75 73 69 64 60 42 300 267 289 317 337 360 23 32 11 355 309 295 286 277 276 274 283 284 281 282 281 283 286 285 287 284 282 280 278 279 277 274 276 272 288 301 308 315 311 303 291
103 98 98 105 106 103 101 97 97 97 92 92 92 87 84 82 79 79 78 74 35 334 327 9 31 50 50 42 26 0 333 306 296 287 285 285 291 295 290 285 282 279 279 284 287 288 289 289 286 286 286 288 292 290 293 308 330 334 331 323 325 329 342
111 112 113 109 102 104 108 102 98 97 101 94 89 86 84 84 82 85 81 55 19 34 70 60 46 39 31 18 1 342 323 305 301 304 304 303 302 299 294 295 298 298 297 292 292 292 293 298 301 305 309 313 312 315 331 340 339 340 332 335 342 354 348
106 104 102 100 105 106 98 96 91 85 75 74 73 75 82 93 92 81 70 54 343 49 55 52 26 17 19 0 339 314 315 315 318 316 316 312 313 312 311 309 304 302 298 296 301 305 307 317 339 352 347 338 337 341 341 340 339 333 331 327 321 318 323
111 109 108 106 105 103 98 103 101 93 81 76 85 78 72 77 87 79 78 40 34 44 43 32 17 12 359 337 318 314 314 325 327 323 324 322 326 328 323 315 316 312 311 322 324 331 351 7 4 0 344 342 340 335 333 331 327 321 322 320 316 312 308
97 97 97 95 90 89 97 97 95 94 89 64 61 67 67 68 83 90 104 101 54 48 47 34 14 0 333 315 319 324 330 336 332 328 332 330 323 316 314 313 315 327 5 20 18 15 15 8 8 358 346 346 339 332 329 324 320 313 312 314 313 310 303
102 102 103 99 101 98 90 91 89 93 89 71 58 71 74 81 80 98 116 81 52 42 39 34 20 350 332 333 328 331 332 335 321 335 336 319 321 339 349 353 26 41 34 22 19 21 19 16 13 2 354 351 338 333 326 324 320 316 312 318 311 306 303
114 102 93 99 101 101 96 97 105 96 88 84 75 82 85 85 88 89 83 71 44 20 20 15 356 353 332 328 324 326 325 325 339 340 326 327 2 36 29 46 50 46 41 30 21 26 30 22 14 7 355 344 339 332 329 326 326 322 322 317 312 304 298
112 112 111 104 100 101 113 115 100 102 102 94 95 97 91 87 84 70 59 42 30 20 15 356 348 345 333 320 324 323 324 329 317 315 326 341 60 53 38 33 54 62 52 34 24 31 34 22 5 2 336 335 336 337 339 337 331 331 319 310 306 300 294
112 109 107 108 110 111 110 104 108 103 99 105 110 103 95 86 72 55 47 41 28 20 13 349 329 333 341 327 328 320 329 328 321 315 320 348 96 84 61 44 44 34 76 66 45 44 24 10 15 339 343 330 344 345 345 336 320 318 332 342 342 340 333
122 119 119 120 108 106 97 99 104 101 102 111 112 107 100 83 56 35 23 29 15 12 347 325 332 347 339 337 335 329 340 323 320 318 318 358 99 101 97 95 53 31 30 39 51 41 28 31 25 16 17 14 337 345 357 356 354 3 7 3 357 353 352
113 116 118 115 120 106 96 103 103 109 115 113 112 109 102 85 52 27 12 8 356 347 338 337 352 347 337 330 317 320 325 316 319 331 346 66 110 112 120 111 98 58 22 14 17 22 29 26 15 9 5 19 23 13 1 3 7 16 13 7 3 358 359